CW0565 Weather Reports


time (UTC)temp
C
wind
direction
speed
KPH
gust
KPH
rain 1hr
cm
rain 24hr
cm
rain mn
cm
humidity
%
barometer
mb
20260507121509 11 138 14.5 22.5 0.00 0.00 0.00 36 1016.9
20260507120009 11 150 17.7 30.6 0.00 0.00 0.00 37 1016.9
20260507114510 11 167 12.9 24.1 0.00 0.00 0.00 36 1016.8
20260507113014 11 171 11.3 35.4 0.00 0.00 0.00 34 1016.9
20260507110024 10 168 14.5 20.9 0.00 0.00 0.00 30 1017.0
20260507104510 10 189 8.0 25.7 0.00 0.00 0.00 31 1016.8
20260507103009 11 159 8.0 19.3 0.00 0.00 0.00 29 1016.8
20260507101510 10 163 9.7 22.5 0.00 0.00 0.00 29 1016.7
20260507100018 10 198 6.4 19.3 0.00 0.00 0.00 29 1016.6
20260507094509 10 191 4.8 19.3 0.00 0.00 0.00 28 1016.5
20260507093013 11 172 4.8 19.3 0.00 0.00 0.00 26 1016.5
20260507091513 11 212 4.8 14.5 0.00 0.00 0.00 26 1016.5
20260507090009 11 209 3.2 12.9 0.00 0.00 0.00 26 1016.6
20260507084517 10 191 9.7 16.1 0.00 0.00 0.00 27 1016.6
20260507083009 11 154 1.6 11.3 0.00 0.00 0.00 27 1016.6
20260507081510 9 144 4.8 16.1 0.00 0.00 0.00 29 1016.5
20260507080009 10 190 1.6 9.7 0.00 0.00 0.00 28 1016.4
20260507074510 11 340 3.2 6.4 0.00 0.00 0.00 28 1016.3
20260507073010 11 344 0.0 4.8 0.00 0.00 0.00 31 1016.3
20260507071511 8 344 3.2 9.7 0.00 0.00 0.00 34 1016.3
20260507070012 8 349 1.6 8.0 0.00 0.00 0.00 38 1016.3
20260507064509 7 350 3.2 8.0 0.00 0.00 0.00 41 1016.3
20260507063024 6 355 3.2 8.0 0.00 0.00 0.00 43 1016.2
20260507061510 5 24 6.4 12.9 0.00 0.00 0.00 45 1016.3
20260507060017 5 14 4.8 12.9 0.00 0.00 0.00 46 1016.3
20260507054511 4 355 1.6 14.5 0.00 0.00 0.00 51 1016.2
20260507053010 3 355 4.8 12.9 0.00 0.00 0.00 54 1016.1
20260507051510 2 360 4.8 14.5 0.00 0.00 0.00 58 1015.9
20260507050010 1 22 3.2 14.5 0.00 0.00 0.00 60 1015.8
20260507044510 0 17 9.7 16.1 0.00 0.00 0.00 65 1015.7
20260507043009 0 19 3.2 9.7 0.00 0.00 0.00 68 1015.6
20260507041509 0 23 8.0 14.5 0.00 0.00 0.00 69 1015.5
20260507040009 0 360 6.4 12.9 0.00 0.00 0.00 71 1015.4
20260507034525 0 355 4.8 8.0 0.00 0.00 0.00 71 1015.2
20260507033010 0 355 3.2 8.0 0.00 0.00 0.00 70 1015.1
20260507031512 0 355 4.8 8.0 0.00 0.00 0.00 69 1015.0
20260507030011 0 355 4.8 9.7 0.00 0.00 0.00 70 1015.0
20260507024510 0 355 3.2 8.0 0.00 0.00 0.00 71 1014.9
20260507023010 0 355 3.2 8.0 0.00 0.00 0.00 69 1014.7
20260507021509 0 355 3.2 8.0 0.00 0.00 0.00 67 1014.6
20260507020024 0 355 4.8 9.7 0.00 0.00 0.00 67 1014.5
20260507014509 0 355 6.4 9.7 0.00 0.00 0.00 67 1014.4
20260507013017 0 355 6.4 9.7 0.00 0.00 0.00 67 1014.2
20260507011510 0 351 6.4 9.7 0.00 0.00 0.00 67 1014.2
20260507010009 1 350 4.8 12.9 0.00 0.00 0.00 64 1014.1
20260507004510 1 355 4.8 12.9 0.00 0.00 0.00 65 1014.0
20260507003010 1 355 4.8 9.7 0.00 0.00 0.00 64 1014.0
20260507001509 1 355 8.0 12.9 0.00 0.00 0.00 64 1013.9
20260507000009 1 355 4.8 9.7 0.00 0.00 0.00 63 1013.8
20260506234518 2 355 3.2 8.0 0.00 0.00 0.00 61 1013.7
20260506233011 2 355 6.4 9.7 0.00 0.00 0.00 61 1013.7
20260506231509 2 355 3.2 9.7 0.00 0.00 0.00 58 1013.7
20260506230010 2 360 3.2 6.4 0.00 0.00 0.00 58 1013.6
20260506224510 3 5 1.6 9.7 0.00 0.00 0.00 55 1013.5
20260506223010 3 5 3.2 12.9 0.00 0.00 0.00 51 1013.5
20260506221509 3 5 3.2 9.7 0.00 0.00 0.00 53 1013.4
20260506220020 5 9 3.2 12.9 0.00 0.00 0.00 47 1013.3
20260506214510 5 11 8.0 12.9 0.00 0.00 0.00 43 1013.1
20260506213009 6 21 9.7 16.1 0.00 0.00 0.00 42 1013.1
20260506211514 6 14 9.7 17.7 0.00 0.00 0.00 41 1012.9
20260506210012 6 16 8.0 14.5 0.00 0.00 0.00 40 1012.8
20260506204509 6 351 8.0 14.5 0.00 0.00 0.00 40 1012.7
20260506201510 7 345 8.0 12.9 0.00 0.00 0.00 38 1012.5
20260506200020 7 344 3.2 14.5 0.00 0.00 0.00 36 1012.3
20260506194509 7 336 4.8 16.1 0.00 0.00 0.00 35 1012.3
20260506193009 8 338 8.0 16.1 0.00 0.00 0.00 33 1012.3
20260506191510 8 329 4.8 12.9 0.00 0.00 0.00 33 1012.1
20260506190002 8 328 8.0 12.9 0.00 0.00 0.00 36 1012.0
20260506184505 9 101 0.0 3.2 0.00 0.00 0.00 48 1011.8
20260506183009 8 101 0.0 3.2 0.00 0.00 0.00 53 1011.8
20260506181516 8 101 3.2 9.7 0.00 0.00 0.00 55 1011.5
20260506180016 9 111 1.6 9.7 0.00 0.00 0.00 53 1011.3
20260506174510 8 145 6.4 17.7 0.00 0.00 0.00 55 1011.3
20260506173009 9 117 3.2 14.5 0.00 0.00 0.00 53 1011.3
20260506171509 10 129 8.0 19.3 0.00 0.00 0.00 45 1011.3
20260506170009 10 108 9.7 22.5 0.00 0.00 0.00 46 1011.3
20260506164511 10 138 9.7 17.7 0.00 0.00 0.00 40 1011.3
20260506163010 10 167 11.3 19.3 0.00 0.00 0.00 39 1011.4
20260506161511 10 173 12.9 17.7 0.00 0.00 0.00 36 1011.3
20260506154509 10 170 6.4 24.1 0.00 0.00 0.00 34 1011.4
20260506153009 10 187 12.9 20.9 0.00 0.00 0.00 33 1011.5
20260506150010 10 166 14.5 32.2 0.00 0.00 0.00 33 1011.6
20260506144510 9 177 12.9 24.1 0.00 0.00 0.00 35 1011.6
20260506143010 10 161 14.5 24.1 0.00 0.00 0.00 32 1011.7
20260506141509 10 170 16.1 22.5 0.00 0.00 0.00 31 1011.7
20260506140010 10 208 12.9 25.7 0.00 0.00 0.00 31 1011.8
20260506134509 10 197 16.1 24.1 0.00 0.00 0.00 32 1011.9
20260506133013 10 180 8.0 24.1 0.00 0.00 0.00 32 1011.9
20260506131516 9 180 12.9 27.4 0.00 0.00 0.00 34 1011.9
20260506130015 9 216 11.3 24.1 0.00 0.00 0.00 35 1012.0
20260506124509 9 205 14.5 32.2 0.00 0.00 0.00 37 1012.0
20260506123009 9 206 14.5 25.7 0.00 0.00 0.00 37 1012.1